Tracking 23764 objects as of 18-Oct-2021
HD Live streaming from Space Station
objects crossing your sky now

FLOCK 3K 5

Track FLOCK 3K 5 now!
10-day predictions
FLOCK 3K 5 is classified as:


NORAD ID: 43899
Int'l Code: 2018-111Z
Perigee: 472.4 km
Apogee: 497.6 km
Inclination: 97.2 °
Period: 94.2 minutes
Semi major axis: 6855 km
RCS: Unknown
Launch date: December 27, 2018
Source: United States (US)
Launch site: VOSTOCHNY COSMODROME (VOSTO)
aabbcc
Your satellite tracking list
Your tracking list is empty




NASA's NSSDC Master Catalog

Two Line Element Set (TLE):
1 43899U 18111Z   21290.15876348  .00002491  00000-0  89786-4 0  9999
2 43899  97.2183 182.0916 0018381 211.6700 148.3436 15.29319250156312
Source of the keplerian elements: AFSPC